Location: Moscow
(38.8570°N, 84.2291°W)
Time: 23:04:41
(UTC+00:00)

O/OREOS (USA 219) - Visible Passes

Search period start: 12 March 2026 00:00
Search period end: 22 March 2026 00:00
Orbit: 576 x 599 km, 72.0° (Epoch: 12 March)

Date Brightness Start Highest point End Pass type
(mag) Time Alt. Az. Time Alt. Az. Time Alt. Az.
12 Mar ? 00:46:00 10° N 00:50:08 43° ENE 00:52:30 22° SE visible
12 Mar ? 02:25:40 10° WNW 02:28:08 15° W 02:29:03 14° WSW visible
13 Mar ? 00:53:13 10° NNW 00:57:33 73° ENE 01:00:58 16° SSE visible
14 Mar ? 01:00:36 10° NNW 01:04:53 66° WSW 01:09:08 10° S visible
15 Mar ? 01:08:09 10° NW 01:12:10 38° WSW 01:16:08 10° S visible
16 Mar ? 01:15:59 10° NW 01:19:23 23° WSW 01:22:45 10° SSW visible
17 Mar ? 01:24:19 10° WNW 01:26:32 14° W 01:28:43 10° SW visible
20 Mar ? 00:06:34 10° NW 00:10:30 35° WSW 00:14:23 10° S visible
21 Mar ? 00:14:24 10° NW 00:17:41 21° WSW 00:20:55 10° SSW visible
